This demonstration page uses our WeatherBlox Daily Observations layout. Learn more.

Hourly Observations for January 9, 2017

Temp ( °F °C ) Dew Point ( °F °C ) Humidity (%) Winds ( mph kmh ) Pressure ( in mb ) Visibility ( mi km ) Precip ( " mm )
12:54 am 00:54 Clear 20 -6.7 10 -12.2 65 65 NNW 10 17 30.3 1026 10 16.0934 0 0
1:54 am 01:54 Clear 17 -8.3 9 -12.8 70 70 N 3 6 30.31 1026 10 16.0934 0 0
2:54 am 02:54 Mostly Cloudy 17 -8.3 10 -12.2 74 74 W 5 7 30.32 1027 10 16.0934 0 0
3:54 am 03:54 Partly Cloudy 17 -8.3 10 -12.2 74 74 Calm 30.28 1026 10 16.0934 0 0
4:54 am 04:54 Clear 19 -7.2 11 -11.7 71 71 N 5 7 30.26 1025 10 16.0934 0 0
5:54 am 05:54 Mostly Cloudy 19 -7.2 11 -11.7 71 71 ENE 5 7 30.22 1024 10 16.0934 0 0
6:54 am 06:54 Cloudy 19 -7.2 11 -11.7 71 71 ENE 10 17 30.18 1022 10 16.0934 0 0
7:54 am 07:54 Mostly Cloudy 19 -7.2 11 -11.7 71 71 SE 13 20 30.17 1022 10 16.0934 0 0
8:54 am 08:54 Cloudy 19 -7.2 12 -11.1 74 74 SE 10 17 30.15 1021 10 16.0934 0 0
9:54 am 09:54 Sunny 21 -6.1 12 -11.1 68 68 SE 10 17 30.12 1020 10 16.0934 0 0
10:54 am 10:54 Sunny 24 -4.4 15 -9.4 68 68 SSE 14 22 30.05 1018 10 16.0934 0 0
11:54 am 11:54 Sunny 28 -2.2 19 -7.2 69 69 SSE 15 24 29.98 1015 10 16.0934 0 0
12:54 pm 12:54 Sunny 30 -1.1 20 -6.7 66 66 SSE 13 20 29.89 1012 10 16.0934 0 0
1:54 pm 13:54 Sunny 33 0.6 23 -5 66 66 SSE 15 24 29.84 1010 10 16.0934 0 0
2:54 pm 14:54 Sunny 34 1.1 24 -4.4 67 67 SSE 15 24 29.8 1009 10 16.0934 0 0
3:54 pm 15:54 Sunny 35 1.7 25 -3.9 67 67 SSE 9 15 29.78 1009 10 16.0934 0 0
4:54 pm 16:54 Sunny 34 1.1 26 -3.3 73 73 SE 7 11 29.75 1007 10 16.0934 0 0
5:54 pm 17:54 Clear 34 1.1 27 -2.8 76 76 SE 5 7 29.72 1007 10 16.0934 0 0
6:54 pm 18:54 Clear 28 -2.2 24 -4.4 85 85 SSE 7 11 29.72 1006 10 16.0934 0 0
7:54 pm 19:54 Clear 32 0 26 -3.3 79 79 S 5 7 29.69 1005 10 16.0934 0 0
8:54 pm 20:54 Clear 29 -1.7 25 -3.9 85 85 S 6 9 29.65 1004 10 16.0934 0 0
9:54 pm 21:54 Clear 29 -1.7 25 -3.9 85 85 SSE 7 11 29.62 1003 10 16.0934 0 0
10:54 pm 22:54 Clear 32 0 27 -2.8 82 82 SSE 8 13 29.57 1001 10 16.0934 0 0
11:54 pm 23:54 Clear 32 0 27 -2.8 82 82 SE 7 11 29.53 1000 10 16.0934 0 0

Powered by AerisWeather